User: anonymous   Login
Location: Caltech
(34.1382°N, 118.1253°W)
Time: 22:29:30
(UTC-08:00)
Language:

Cosmos 1939 - Orbit

View from above orbital plane
View from above orbital plane
View from above satellite
View from above satellite

Ground track
Ground track

The orbit data is extracted from the following two-line orbital elements,

1 19045U 88032A   14302.84606564 -.00000148  00000-0  00000+0 0   555
2 19045 097.1890 016.6217 0006331 188.5535 171.6230 16.56036775461801
Epoch (UTC): 29 October 2014 20:18:20
Eccentricity: 0.0006331
inclination: 97.1890°
perigee height: 119 km
apogee height: 127 km
right ascension of ascending node: 16.6217°
argument of perigee: 188.5535°
revolutions per day: 16.56036775
mean anomaly at epoch: 171.6230°
orbit number at epoch: 46180

The dashed part of the orbit path shows where the satellite is in the earth's shadow,  

DLR